Location: Caltech
(34.1382°N, 118.1253°W)
Time: 20:11:34
(UTC-08:00)

Uribyol 2 - Visible Passes

Search period start: 24 February 2018 00:00
Search period end: 06 March 2018 00:00
Orbit: 783 x 796 km, 98.8° (Epoch: 24 February)

Date Brightness Start Highest point End Pass type
(mag) Time Alt. Az. Time Alt. Az. Time Alt. Az.
24 Feb ? 04:18:06 10° N 04:19:58 21° N 04:19:58 21° N visible
25 Feb ? 03:48:13 10° NNE 03:50:06 23° NNE 03:50:06 23° NNE visible
26 Feb ? 03:18:45 10° NNE 03:20:13 18° NE 03:20:13 18° NE visible
26 Feb ? 04:59:15 10° NNW 05:00:57 16° NW 05:00:57 16° NW visible
27 Feb ? 02:49:52 10° NE 02:50:20 12° NE 02:50:20 12° NE visible
27 Feb ? 04:28:40 10° N 04:31:04 24° NNW 04:31:04 24° NNW visible
28 Feb ? 03:58:38 10° N 04:01:11 29° N 04:01:11 29° N visible
01 Mar ? 03:29:02 10° NNE 03:31:18 26° NNE 03:31:18 26° NNE visible
01 Mar ? 05:10:12 10° NNW 05:12:01 14° NW 05:12:01 14° NW visible
02 Mar ? 02:59:54 10° NE 03:01:25 17° NE 03:01:25 17° NE visible
02 Mar ? 04:39:17 10° N 04:42:09 24° NW 04:42:09 24° NW visible
03 Mar ? 04:09:06 10° N 04:12:16 35° NNW 04:12:16 35° NNW visible
04 Mar ? 03:39:22 10° NNE 03:42:23 36° NNE 03:42:23 36° NNE visible
04 Mar ? 05:21:29 10° NW 05:23:07 12° WNW 05:23:07 12° WNW visible
05 Mar ? 03:10:03 10° NNE 03:12:31 24° NE 03:12:31 24° NE visible
05 Mar ? 04:49:58 10° NNW 04:53:14 22° NW 04:53:14 22° NW visible
